ORBCOMM FM32 [+]

Last updated on Fri Dec 29 2023 00:02:54 GMT+0000 (Coordinated Universal Time)

1 25982U 99065C 23362.10778664 .00001715 00000+0 66301-3 0 9992 2 25982 45.0156 113.0488 0007103 221.8079 138.2226 14.33669184257580
UTC large
Height (km)
Speed (km/s)
/
Latitude / Longitude
Inclination (degrees)
Orbital Period (minutes)
Azimuth
Elevation
Range (km)
Doppler Factor

Next 0 passes for location: London (51.5072 / 0.1276)

Sorry there are no passes over London.